Temperature
15 12 11 12 13 14 14 13 12 11 8 7 6 5 5 5 4 4 4 4 4 4 3 2 2 1 -0 -1 -1 -1 -1 -1 -2 -2 -3 -3 -4 -5 -5 -6 -7 -8 -8 -9
12 13 13 12 13 13 13 13 12 10 9 8 7 6 5 4 4 4 4 5 4 4 3 2 1 0 -1 -1 -1 -1 -1 -2 -3 -4 -4 -5 -5 -6 -6 -7 -7 -8 -9 -9
14 13 13 13 12 13 13 13 12 11 9 8 7 7 5 4 4 4 5 5 5 4 3 2 1 -0 -1 -1 -1 -1 -2 -3 -3 -4 -5 -5 -5 -6 -6 -7 -8 -9 -10 -10
12 12 13 13 12 12 13 12 12 10 9 7 8 8 8 4 3 3 4 4 4 4 3 1 0 -1 -1 -1 -1 -2 -2 -3 -4 -5 -5 -6 -7 -7 -8 -9 -9 -9 -10 -11
13 12 13 13 12 12 12 11 11 10 9 8 7 7 7 4 4 3 3 4 4 3 2 1 -0 -1 -1 -1 -2 -2 -3 -4 -4 -5 -6 -6 -7 -8 -9 -9 -9 -10 -11 -11
12 12 12 12 12 11 11 10 9 7 7 9 9 8 9 4 4 4 3 3 4 2 1 1 -0 -1 -1 -2 -2 -2 -3 -4 -4 -5 -6 -7 -8 -8 -9 -9 -10 -11 -11 -12
14 13 12 12 13 11 11 11 11 11 10 11 8 8 8 7 4 4 3 3 3 2 1 0 -0 -1 -1 -2 -2 -3 -3 -4 -5 -6 -7 -8 -8 -9 -9 -10 -11 -12 -12 -12
14 13 12 11 12 11 11 12 12 12 10 9 8 7 7 5 4 4 4 3 2 1 1 0 -0 -1 -2 -2 -2 -3 -4 -5 -5 -6 -7 -8 -8 -9 -10 -11 -12 -12 -12 -13
13 13 12 11 11 11 11 9 10 8 8 8 7 7 7 3 3 2 2 2 2 1 1 0 -1 -2 -2 -2 -3 -4 -4 -5 -6 -6 -7 -7 -8 -9 -10 -11 -12 -12 -12 -13
11 12 12 11 11 10 10 7 7 8 10 9 8 8 8 7 3 1 0 1 1 1 0 -0 -1 -2 -2 -3 -3 -4 -5 -6 -6 -7 -7 -8 -9 -10 -11 -12 -12 -12 -12 -12
10 10 11 11 11 11 9 9 7 6 7 8 8 10 8 8 5 2 1 2 2 1 0 -1 -2 -2 -2 -3 -4 -4 -5 -6 -6 -7 -7 -8 -9 -10 -11 -12 -12 -12 -12 -12
8 8 9 11 10 10 10 9 7 9 8 6 6 9 8 6 5 4 3 2 2 1 -0 -1 -1 -2 -3 -3 -4 -5 -5 -6 -6 -7 -7 -8 -9 -10 -11 -12 -12 -12 -12 -12
8 9 11 13 11 10 10 9 7 7 6 4 5 9 6 3 3 3 2 2 1 0 -1 -1 -2 -2 -3 -4 -4 -5 -5 -6 -6 -6 -7 -8 -9 -10 -11 -12 -12 -12 -12 -12
8 8 10 13 13 10 10 9 7 7 7 6 5 8 9 4 2 1 1 2 1 0 -0 -1 -2 -3 -3 -4 -4 -5 -6 -6 -6 -6 -7 -8 -9 -10 -11 -11 -12 -12 -12 -12
7 8 8 7 8 8 8 8 6 6 6 7 7 7 9 7 4 3 2 1 0 -0 -1 -1 -2 -3 -3 -4 -5 -5 -5 -6 -6 -6 -7 -8 -9 -10 -10 -11 -12 -12 -12 -12
5 8 8 8 8 7 6 6 6 6 6 5 6 8 7 4 4 2 1 1 0 0 -0 -1 -2 -3 -3 -4 -5 -5 -5 -6 -6 -6 -7 -8 -9 -10 -10 -11 -12 -12 -12 -12
5 7 9 8 7 8 10 10 6 6 5 6 7 9 5 3 2 2 2 1 1 1 -0 -1 -2 -3 -3 -4 -4 -5 -5 -5 -6 -6 -7 -8 -9 -9 -10 -11 -12 -12 -12 -13
5 6 6 6 8 13 13 9 8 8 8 5 6 6 5 5 4 4 4 3 2 1 -0 -1 -2 -3 -3 -4 -5 -5 -5 -6 -6 -6 -7 -8 -9 -9 -10 -10 -11 -12 -12 -13
5 5 6 6 8 9 10 9 8 8 9 7 6 6 4 2 2 2 3 3 2 1 -0 -1 -2 -3 -3 -4 -5 -5 -5 -6 -6 -6 -7 -8 -9 -9 -10 -10 -11 -12 -12 -12
3 4 4 5 10 11 13 8 8 9 9 10 8 6 2 -0 1 3 5 3 1 -0 -1 -2 -2 -3 -3 -4 -4 -5 -5 -6 -6 -6 -7 -8 -9 -9 -9 -10 -10 -11 -12 -12
4 4 4 4 6 9 9 7 8 10 11 13 12 10 5 2 5 6 5 3 1 0 -1 -2 -2 -3 -3 -4 -4 -5 -5 -5 -6 -7 -7 -8 -8 -9 -9 -10 -10 -10 -11 -11
5 4 3 3 5 8 9 5 7 12 14 13 12 11 10 9 6 5 5 3 1 0 -1 -1 -2 -3 -3 -4 -4 -5 -5 -5 -6 -6 -7 -8 -8 -9 -9 -10 -10 -10 -10 -11
6 7 6 7 10 12 11 13 16 15 14 13 12 11 10 8 6 5 4 3 1 0 -1 -1 -2 -2 -3 -3 -4 -4 -5 -5 -6 -6 -7 -7 -8 -8 -9 -9 -10 -10 -10 -10
5 6 5 5 7 10 12 14 15 14 14 13 12 10 9 9 7 5 4 2 1 0 -1 -1 -2 -2 -3 -3 -4 -4 -5 -5 -6 -6 -6 -7 -7 -7 -8 -9 -9 -10 -10 -11
8 3 4 5 7 11 15 18 18 17 15 14 12 10 9 8 7 6 4 3 2 0 -0 -1 -2 -2 -3 -3 -4 -4 -5 -5 -5 -6 -6 -6 -7 -7 -7 -7 -8 -9 -10 -11
6 6 7 12 14 12 17 18 17 16 15 14 13 11 8 7 7 5 4 3 2 1 -0 -1 -2 -2 -3 -3 -4 -4 -5 -5 -5 -6 -6 -6 -6 -6 -7 -7 -7 -8 -9 -10
Wind_Speed
7 8 5 2 1 2 3 3 3 2 5 7 9 10 8 10 11 11 10 9 9 8 5 6 5 2 2 4 5 6 6 8 10 6 6 7 8 7 11 15 18 20 20 21
8 5 3 2 2 3 3 2 2 2 3 5 6 9 7 8 10 10 12 12 10 7 6 6 5 3 2 5 5 6 7 7 9 8 7 6 7 7 11 15 17 18 21 22
6 1 2 4 5 4 2 1 2 3 2 2 6 8 2 3 5 6 8 8 8 9 9 7 5 4 3 4 5 7 7 7 10 12 10 10 5 4 5 7 7 17 21 21
4 3 2 4 4 4 1 1 1 1 2 4 3 6 5 3 4 7 9 9 9 8 7 5 4 3 2 3 5 6 7 7 10 12 8 9 9 10 10 7 9 18 20 21
2 3 4 3 2 1 1 1 1 2 1 3 2 2 7 1 6 10 10 9 9 8 8 6 4 2 2 4 5 6 6 6 9 11 8 8 8 7 9 9 9 10 16 19
1 0 1 0 1 0 0 4 4 4 4 4 2 3 8 5 7 6 7 9 9 8 7 6 4 3 3 4 5 6 7 7 8 9 8 9 10 10 13 13 11 10 9 13
2 1 1 1 1 4 5 5 6 7 5 5 1 3 9 4 6 5 7 10 9 9 7 5 3 2 4 5 5 6 8 8 9 9 9 9 9 9 10 12 12 13 12 12
1 4 2 2 2 1 3 4 4 3 5 7 2 6 7 0 0 1 4 8 9 8 7 6 4 1 2 5 6 7 8 8 9 9 9 8 8 7 8 10 11 12 11 12
1 4 0 1 1 2 3 4 3 5 2 5 7 8 8 3 1 2 6 8 9 8 7 6 4 1 2 4 5 7 8 9 9 9 9 8 7 8 10 10 10 10 12 17
1 4 3 1 3 4 3 7 5 3 2 6 8 7 6 8 9 8 9 10 9 8 7 6 4 1 2 3 5 7 7 8 8 9 8 10 8 10 11 10 12 12 15 18
1 1 5 2 4 5 4 4 4 4 3 3 6 9 7 7 7 11 14 12 11 10 8 6 4 1 2 4 5 6 7 8 8 8 8 9 9 10 11 9 11 13 14 17
3 3 4 5 0 1 5 6 7 3 4 4 4 9 3 5 5 8 10 10 10 10 8 6 4 0 2 4 6 7 7 7 8 7 8 9 9 9 10 11 12 15 14 17
4 3 4 5 3 1 2 4 5 5 4 5 4 10 1 1 2 4 8 10 10 9 8 6 3 0 2 4 6 7 7 7 7 7 8 9 9 10 11 11 11 14 13 14
5 3 5 6 5 3 5 5 6 6 4 6 10 15 12 7 8 7 8 10 10 9 8 6 4 2 3 5 6 6 7 7 7 7 8 8 9 10 10 10 11 12 12 12
4 3 5 8 7 5 7 9 9 10 10 10 10 11 18 10 9 10 10 11 10 9 8 7 5 3 3 5 5 6 6 7 7 7 8 8 9 10 10 10 10 11 11 13
3 2 3 6 3 4 8 11 10 11 8 10 11 18 12 3 2 7 12 14 12 10 10 8 7 5 5 5 5 6 6 6 6 7 7 8 9 10 10 10 10 11 11 12
4 3 1 5 7 7 9 9 10 8 10 11 11 11 3 4 7 10 14 15 13 10 9 9 8 6 5 5 5 5 6 6 6 7 7 8 9 10 10 11 11 11 11 11
6 5 2 3 8 6 7 1 7 8 10 12 11 12 7 7 4 5 9 14 12 11 10 9 8 6 5 4 4 4 5 5 6 7 7 8 8 9 10 9 10 10 8 9
3 6 4 1 4 10 11 4 6 6 10 9 12 14 2 4 2 4 8 11 11 11 9 8 7 6 5 4 4 4 4 5 6 7 7 8 8 8 9 9 9 8 8 8
5 4 5 4 2 7 8 3 4 2 8 8 9 8 8 8 3 7 11 11 10 9 8 8 7 6 5 5 3 3 4 5 6 7 7 8 7 8 9 9 8 6 8 8
3 3 5 6 7 11 8 5 6 3 8 5 9 9 13 13 8 3 12 11 10 9 8 8 8 7 6 4 3 4 4 5 6 7 7 7 7 8 8 7 7 8 9 10
9 8 8 6 6 10 7 10 11 12 4 6 7 9 12 10 5 8 12 13 13 10 9 8 8 7 6 5 4 4 6 6 6 6 7 7 8 8 8 8 8 8 9 9
10 11 8 12 11 6 12 13 11 5 7 8 8 9 11 10 9 11 11 12 12 12 11 8 8 7 6 5 5 5 5 5 6 7 7 8 8 8 7 7 8 8 8 8
7 5 6 8 15 12 13 13 13 10 10 8 9 10 14 11 13 14 14 13 12 12 11 9 9 8 7 6 6 6 5 5 6 7 8 7 7 8 8 8 7 7 8 9
9 10 7 9 12 11 12 14 17 14 11 9 9 10 15 15 13 15 14 15 14 13 11 10 10 9 8 7 6 6 5 4 5 7 7 7 7 7 8 8 7 9 8 11
9 12 12 13 12 9 11 7 7 10 12 13 12 10 10 13 16 16 15 14 14 13 12 10 10 9 8 7 6 6 5 4 5 6 6 6 6 7 7 8 9 13 13 17
Wind_Direction
18 58 45 332 260 175 151 179 249 268 167 187 230 251 235 192 197 205 209 211 214 218 190 164 169 177 317 311 316 317 337 346 353 348 343 333 328 319 317 326 329 327 327 327
40 48 330 336 45 124 134 148 270 287 166 214 269 266 246 191 202 205 205 208 209 201 175 182 188 201 289 303 317 333 347 341 346 340 326 313 309 305 314 322 320 325 328 327
111 291 331 79 55 77 78 148 274 280 3 30 328 305 222 204 193 200 204 203 197 195 195 197 203 225 270 308 330 343 338 336 340 339 331 329 309 300 319 324 317 326 327 324
69 352 54 70 53 53 8 268 212 161 19 317 9 310 284 219 227 218 209 197 192 188 179 182 194 220 280 330 340 339 335 335 339 341 336 337 343 335 328 324 320 325 326 323
46 13 48 58 8 36 260 14 122 144 149 330 356 235 290 89 260 241 217 198 187 177 167 168 165 150 32 2 345 340 338 334 337 338 333 329 321 312 318 320 318 320 324 323
142 123 83 309 323 53 178 81 72 69 71 332 245 201 285 227 229 248 209 188 178 165 153 145 126 77 22 357 345 344 345 338 334 333 328 324 318 319 326 331 329 329 324 321
348 343 37 358 45 20 51 54 10 356 359 286 162 236 253 264 217 225 205 185 170 157 151 147 122 48 356 343 346 350 349 338 332 329 326 319 314 316 322 328 329 328 327 324
309 298 333 28 85 89 41 92 116 281 282 298 301 251 261 155 81 241 176 157 151 153 154 146 126 87 328 338 351 352 343 332 327 327 323 311 314 323 323 322 322 320 319 316
199 271 38 79 90 113 98 95 135 146 294 289 283 283 301 141 217 147 145 152 165 164 157 147 139 150 323 345 351 343 332 325 323 321 318 317 325 325 323 320 318 316 316 320
111 283 299 94 99 45 76 140 101 115 308 296 295 285 268 251 237 212 197 188 179 166 159 156 167 210 316 348 340 332 325 318 313 315 320 338 326 324 323 322 320 319 320 320
75 215 306 337 203 194 128 118 114 117 164 212 293 280 226 231 224 214 207 191 178 173 170 172 184 217 344 348 337 325 320 316 313 314 318 324 323 324 325 322 320 321 322 324
96 119 286 267 226 69 179 182 157 172 224 200 235 272 253 217 240 215 196 178 170 166 163 169 178 189 352 337 325 319 315 312 309 313 323 325 325 325 325 323 322 324 325 328
133 103 348 347 347 15 208 192 169 134 132 172 209 267 213 181 233 202 174 164 160 158 162 171 178 237 320 314 310 310 310 308 309 319 327 327 327 327 325 324 323 327 328 329
115 142 195 237 259 235 236 208 171 152 192 224 230 261 281 242 230 205 178 167 162 166 171 178 190 233 280 292 296 301 305 308 320 329 329 329 327 325 323 324 326 329 330 333
115 200 246 257 258 239 241 227 195 198 207 217 248 256 277 284 235 204 176 167 168 177 185 187 192 217 256 279 292 300 304 313 324 330 331 329 325 324 325 328 328 330 335 339
113 176 320 293 216 259 264 242 214 221 223 237 266 276 274 308 138 160 169 176 184 191 191 189 193 207 234 260 282 297 305 313 324 329 326 326 329 329 330 331 333 334 335 335
137 130 359 287 304 319 280 241 188 207 210 200 232 256 218 234 210 192 187 187 191 190 186 186 192 206 225 244 266 282 297 311 324 325 324 326 327 329 330 334 336 334 330 330
137 129 136 304 352 280 249 112 176 216 244 217 240 261 236 237 212 201 185 187 188 183 181 182 185 197 215 231 256 278 299 317 322 323 322 322 324 325 325 329 331 327 322 326
137 140 131 98 309 284 295 241 182 209 280 226 229 256 187 105 58 264 205 188 185 178 173 175 178 187 197 221 251 283 307 319 321 320 318 316 317 319 322 326 324 318 319 319
60 97 120 140 222 260 258 164 165 105 286 246 206 216 159 146 207 252 184 171 162 158 157 163 169 178 196 216 233 267 299 311 311 309 307 307 310 315 314 314 314 312 318 320
131 132 162 178 226 262 251 152 144 176 253 226 192 190 171 193 211 182 152 154 153 154 158 162 170 185 198 202 213 254 282 289 293 301 303 306 310 310 304 311 309 312 318 321
174 169 189 164 201 255 197 148 186 220 215 185 197 190 191 197 148 146 156 157 158 159 161 167 177 193 197 195 204 248 269 279 296 302 304 306 308 310 319 315 309 310 311 313
199 193 186 194 218 240 179 203 221 205 210 209 203 199 179 170 175 167 167 165 167 168 172 175 181 190 199 201 204 240 261 288 304 308 306 306 308 307 310 308 306 311 309 310
231 189 189 242 261 252 229 240 249 226 226 220 198 181 172 178 176 173 172 173 174 176 179 179 180 191 205 209 215 231 262 287 299 304 306 307 308 310 314 317 316 315 314 315
205 168 202 248 269 290 265 233 240 237 225 212 191 184 184 175 173 176 177 180 180 182 182 183 189 197 204 203 220 235 251 273 291 300 304 311 314 309 314 320 315 317 315 324
189 182 189 238 231 216 255 235 207 208 213 201 185 186 185 182 179 176 180 179 179 180 180 186 193 198 200 201 221 233 239 250 277 300 310 313 312 317 323 321 323 329 336 338
Height
1574 1580 1588 1587 1586 1586 1587 1590 1592 1593 1594 1598 1598 1595 1593 1594 1596 1597 1599 1600 1602 1603 1605 1605 1604 1602 1598 1595 1590 1586 1582 1577 1572 1565 1559 1553 1547 1541 1536 1530 1525 1518 1512 1506
1582 1587 1587 1586 1585 1586 1588 1590 1592 1594 1594 1596 1594 1592 1588 1589 1590 1591 1594 1596 1598 1600 1602 1602 1601 1599 1596 1592 1588 1584 1579 1574 1569 1563 1556 1550 1544 1537 1532 1526 1520 1514 1508 1502
1584 1589 1586 1586 1587 1587 1589 1589 1591 1593 1594 1595 1595 1587 1588 1588 1588 1590 1591 1593 1595 1597 1599 1599 1598 1596 1593 1589 1585 1581 1577 1572 1566 1560 1554 1547 1540 1534 1527 1520 1514 1509 1503 1497
1588 1587 1586 1587 1588 1588 1590 1588 1589 1592 1596 1600 1598 1597 1581 1587 1588 1587 1587 1589 1591 1594 1596 1596 1595 1593 1590 1587 1583 1579 1575 1570 1564 1558 1551 1544 1536 1530 1523 1517 1510 1505 1499 1493
1590 1588 1588 1588 1589 1588 1589 1588 1589 1592 1595 1599 1601 1601 1586 1589 1587 1583 1583 1584 1588 1590 1592 1593 1592 1590 1587 1584 1580 1577 1573 1567 1561 1555 1549 1542 1535 1528 1521 1514 1507 1500 1494 1489
1589 1588 1588 1589 1588 1588 1588 1590 1594 1598 1601 1599 1595 1597 1587 1588 1582 1578 1578 1581 1584 1587 1589 1590 1589 1587 1585 1582 1578 1575 1570 1565 1559 1553 1546 1540 1533 1525 1518 1511 1503 1496 1490 1484
1589 1589 1589 1588 1588 1589 1590 1594 1600 1597 1599 1596 1597 1595 1584 1576 1576 1576 1576 1578 1581 1584 1586 1586 1586 1584 1582 1579 1576 1572 1567 1561 1556 1550 1544 1537 1531 1524 1517 1510 1502 1495 1488 1481
1593 1595 1589 1589 1590 1592 1592 1593 1604 1607 1608 1604 1598 1595 1578 1576 1575 1574 1574 1576 1579 1581 1583 1583 1583 1581 1579 1577 1573 1569 1564 1559 1553 1547 1541 1535 1528 1522 1516 1509 1503 1495 1488 1480
1596 1595 1591 1590 1590 1591 1594 1601 1600 1610 1611 1613 1601 1589 1576 1576 1574 1574 1574 1575 1577 1579 1580 1581 1580 1578 1577 1574 1571 1566 1561 1556 1551 1545 1538 1533 1527 1520 1514 1508 1502 1495 1487 1480
1596 1597 1591 1591 1591 1593 1594 1600 1608 1609 1608 1609 1599 1591 1580 1569 1571 1572 1571 1572 1573 1576 1577 1577 1577 1576 1574 1572 1568 1564 1559 1554 1549 1543 1537 1531 1525 1519 1512 1506 1500 1493 1486 1478
1597 1600 1595 1592 1592 1593 1597 1600 1604 1612 1611 1611 1610 1584 1566 1563 1562 1564 1564 1566 1569 1572 1574 1574 1574 1573 1572 1569 1566 1562 1557 1552 1547 1541 1535 1529 1523 1517 1511 1505 1498 1492 1485 1477
1599 1603 1601 1594 1591 1591 1592 1594 1602 1604 1606 1613 1613 1585 1561 1560 1559 1559 1560 1563 1567 1570 1571 1572 1571 1571 1569 1566 1563 1559 1555 1550 1545 1539 1534 1528 1522 1516 1509 1503 1497 1491 1484 1477
1598 1602 1600 1593 1595 1594 1593 1593 1597 1601 1607 1617 1615 1579 1560 1558 1557 1557 1557 1560 1563 1566 1568 1568 1568 1568 1566 1564 1561 1557 1553 1548 1543 1538 1532 1527 1521 1514 1508 1502 1496 1490 1484 1477
1595 1601 1601 1594 1590 1589 1590 1591 1595 1598 1603 1605 1597 1570 1554 1556 1556 1555 1555 1557 1560 1563 1564 1565 1565 1565 1563 1561 1558 1555 1551 1547 1542 1537 1531 1525 1519 1513 1507 1502 1496 1490 1483 1477
1594 1599 1597 1594 1591 1591 1589 1587 1590 1592 1589 1589 1575 1568 1549 1548 1549 1548 1551 1554 1557 1559 1561 1562 1562 1562 1560 1559 1556 1553 1550 1545 1541 1536 1530 1525 1519 1513 1507 1501 1495 1490 1484 1478
1594 1596 1596 1591 1587 1589 1587 1580 1583 1584 1582 1580 1573 1561 1544 1544 1544 1544 1547 1550 1552 1555 1557 1558 1559 1558 1557 1556 1554 1551 1548 1544 1539 1535 1529 1524 1518 1512 1507 1501 1495 1489 1484 1478
1595 1595 1594 1594 1589 1582 1575 1562 1570 1570 1568 1566 1563 1549 1543 1543 1542 1541 1542 1545 1547 1551 1553 1554 1555 1555 1555 1554 1552 1549 1546 1542 1538 1534 1529 1523 1518 1512 1506 1501 1495 1489 1484 1478
1593 1595 1599 1600 1590 1577 1558 1556 1556 1558 1554 1554 1549 1541 1540 1539 1538 1538 1539 1541 1544 1547 1549 1551 1552 1552 1552 1551 1550 1547 1544 1541 1537 1533 1528 1523 1517 1512 1506 1501 1495 1489 1484 1478
1589 1594 1599 1602 1595 1581 1558 1553 1555 1556 1550 1540 1541 1536 1537 1536 1537 1535 1535 1538 1541 1544 1546 1548 1548 1549 1549 1549 1547 1545 1543 1539 1536 1532 1527 1522 1517 1512 1506 1501 1495 1489 1484 1478
1592 1593 1601 1603 1590 1580 1552 1552 1551 1554 1550 1532 1532 1531 1533 1536 1539 1531 1529 1533 1537 1540 1542 1544 1545 1546 1546 1546 1545 1543 1541 1538 1534 1530 1526 1521 1516 1512 1507 1501 1495 1490 1484 1479
1594 1596 1599 1600 1594 1571 1548 1548 1552 1555 1541 1527 1526 1526 1527 1527 1526 1525 1526 1529 1533 1536 1539 1540 1541 1542 1543 1543 1542 1541 1539 1536 1533 1529 1525 1521 1516 1511 1506 1501 1496 1490 1485 1479
1579 1589 1593 1595 1594 1567 1541 1544 1544 1532 1522 1521 1521 1521 1520 1519 1520 1521 1523 1525 1529 1532 1534 1536 1538 1539 1540 1540 1540 1538 1537 1534 1531 1528 1524 1520 1515 1511 1506 1501 1496 1490 1484 1478
1564 1559 1562 1562 1547 1530 1527 1524 1521 1519 1518 1516 1516 1515 1515 1515 1515 1517 1520 1522 1525 1528 1531 1533 1535 1536 1537 1537 1537 1536 1535 1533 1530 1527 1523 1519 1515 1510 1505 1500 1494 1489 1483 1477
1550 1548 1551 1550 1530 1521 1520 1517 1515 1514 1512 1511 1511 1510 1509 1509 1510 1513 1516 1518 1521 1524 1527 1529 1531 1532 1533 1534 1534 1534 1533 1531 1528 1525 1522 1518 1514 1509 1505 1499 1493 1487 1482 1476
1534 1542 1543 1538 1522 1515 1509 1508 1507 1506 1505 1504 1503 1503 1503 1504 1506 1508 1511 1513 1517 1520 1523 1526 1527 1529 1530 1530 1531 1531 1530 1528 1526 1524 1520 1517 1513 1508 1503 1498 1493 1487 1482 1478
1524 1526 1529 1518 1507 1508 1503 1502 1501 1500 1498 1498 1497 1496 1497 1499 1501 1504 1506 1509 1512 1516 1519 1521 1524 1525 1526 1527 1527 1528 1527 1526 1524 1522 1519 1515 1511 1507 1502 1496 1492 1488 1483 1478